This demonstration page uses our WeatherBlox Daily Observations layout. Learn more.

Hourly Observations for May 15, 2017

Temp ( °F °C ) Dew Point ( °F °C ) Humidity (%) Winds ( mph kmh ) Pressure ( in mb ) Visibility ( mi km ) Precip ( " mm )
12:15 am 00:15 Clear 62 16.6 55 12.7 78 78 E 5 7 29.77 1008 10 16.09344 0 0
12:35 am 00:35 Clear 62 16.9 55 12.6 76 76 ENE 7 11 29.77 1008 10 16.09344 0 0
12:55 am 00:55 Clear 61 16 55 12.6 80 80 ENE 7 11 29.74 1007 10 16.09344 0 0
1:15 am 01:15 Clear 61 16.3 55 12.8 80 80 ENE 8 13 29.74 1007 10 16.09344 0 0
1:35 am 01:35 Clear 63 17.1 55 12.8 76 76 ENE 9 15 29.74 1007 10 16.09344 0 0
1:55 am 01:55 Clear 64 18 55 12.7 71 71 ENE 8 13 29.68 1005 10 16.09344 0 0
2:15 am 02:15 Clear 65 18.5 55 12.6 69 69 E 10 17 29.68 1005 10 16.09344 0 0
2:35 am 02:35 Clear 64 17.5 55 12.6 73 73 E 6 9 29.68 1005 10 16.09344 0 0
2:55 am 02:55 Clear 63 17.3 55 12.5 74 74 E 6 9 29.71 1006 10 16.09344 0 0
3:15 am 03:15 Clear 63 17.1 55 12.5 75 75 ESE 5 7 29.74 1007 10 16.09344 0 0
3:35 am 03:35 Clear 61 16.2 55 12.6 79 79 ENE 6 9 29.71 1006 10 16.09344 0 0
3:55 am 03:55 Clear 60 15.8 55 12.5 81 81 E 6 9 29.71 1006 10 16.09344 0 0
4:15 am 04:15 Clear 61 16.1 55 12.5 79 79 E 3 6 29.71 1006 10 16.09344 0 0
4:35 am 04:35 Clear 61 16.1 54 12.1 77 77 E 3 6 29.71 1006 10 16.09344 0 0
4:55 am 04:55 Clear 60 15.3 54 12.1 81 81 ESE 6 9 29.71 1006 10 16.09344 0 0
5:15 am 05:15 Clear 58 14.7 53 11.7 82 82 Calm 29.71 1006 10 16.09344 0 0
5:35 am 05:35 Clear 58 14.5 53 11.7 83 83 ENE 6 9 29.71 1006 10 16.09344 0 0
5:55 am 05:55 Clear 57 13.9 53 11.8 87 87 E 6 9 29.68 1005 10 16.09344 0 0
6:15 am 06:15 Clear 59 14.9 54 12.2 84 84 E 7 11 29.68 1005 10 16.09344 0 0
6:35 am 06:35 Sunny 60 15.6 55 12.6 82 82 E 7 11 29.68 1005 10 16.09344 0 0
6:55 am 06:55 Sunny 61 15.9 55 12.8 82 82 ESE 7 11 29.68 1005 10 16.09344 0 0
7:15 am 07:15 Sunny 60 15.8 55 13 84 84 ESE 6 9 29.68 1005 10 16.09344 0 0
7:35 am 07:35 Sunny 62 16.5 56 13.5 83 83 SE 7 11 29.68 1005 10 16.09344 0 0
7:55 am 07:55 Sunny 62 16.5 56 13.5 83 83 ESE 6 9 29.68 1005 10 16.09344 0 0
8:15 am 08:15 Sunny 62 16.5 57 13.8 84 84 ESE 5 7 29.68 1005 10 16.09344 0 0
8:35 am 08:35 Sunny 63 17.4 57 14.1 81 81 ESE 6 9 29.65 1004 10 16.09344 0 0
8:55 am 08:55 Sunny 65 18.1 58 14.5 80 80 ESE 3 6 29.68 1005 10 16.09344 0 0
9:15 am 09:15 Sunny 66 19 58 14.7 76 76 SSE 6 9 29.68 1005 10 16.09344 0 0
9:35 am 09:35 Sunny 69 20.5 59 15.2 72 72 SE 5 7 29.68 1005 10 16.09344 0 0
9:55 am 09:55 Sunny 72 22.3 58 14.6 62 62 Calm 29.65 1004 10 16.09344 0 0
10:15 am 10:15 Sunny 72 22.2 60 15.5 66 66 N 12 19 29.65 1004 10 16.09344 0 0
10:35 am 10:35 Sunny 70 21.3 59 15.2 68 68 NNE 10 17 29.65 1004 10 16.09344 0 0
10:55 am 10:55 Sunny 71 21.6 59 14.9 66 66 NNE 14 22 29.65 1004 10 16.09344 0 0
11:15 am 11:15 Sunny 70 21.3 59 15.2 68 68 NE 12 19 29.65 1004 10 16.09344 0 0
11:35 am 11:35 Sunny 72 22.1 60 15.4 66 66 NE 12 19 29.65 1004 10 16.09344 0 0
11:55 am 11:55 Sunny 72 22.4 60 15.4 65 65 NE 12 19 29.65 1004 10 16.09344 0 0
12:15 pm 12:15 Sunny 72 22.1 59 14.9 64 64 ENE 13 20 29.65 1004 10 16.09344 0 0
12:35 pm 12:35 Sunny 73 22.8 60 15.8 65 65 ENE 14 22 29.65 1004 10 16.09344 0 0
12:55 pm 12:55 Sunny 74 23.6 61 15.9 62 62 ENE 13 20 29.65 1004 10 16.09344 0 0
1:15 pm 13:15 Sunny 75 24.1 61 16.1 61 61 E 12 19 29.65 1004 10 16.09344 0 0
1:35 pm 13:35 Sunny 76 24.6 61 16.2 60 60 E 15 24 29.59 1002 10 16.09344 0 0
1:55 pm 13:55 Sunny 77 24.8 61 16.3 59 59 ENE 10 17 29.59 1002 10 16.09344 0 0
2:15 pm 14:15 Sunny 78 25.3 62 16.7 59 59 ENE 14 22 29.59 1002 10 16.09344 0 0
2:35 pm 14:35 Sunny 80 26.5 58 14.3 47 47 SE 15 24 29.56 1001 10 16.09344 0 0
2:55 pm 14:55 Sunny 81 27.3 56 13.5 43 43 SE 10 17 29.56 1001 10 16.09344 0 0
3:15 pm 15:15 Sunny 81 27.2 57 13.8 44 44 SE 8 13 29.56 1001 10 16.09344 0 0
3:35 pm 15:35 Sunny 83 28.2 57 13.7 41 41 SE 9 15 29.53 1000 10 16.09344 0 0
3:55 pm 15:55 Sunny 83 28.6 58 14.3 42 42 SSE 12 19 29.53 1000 10 16.09344 0 0
4:15 pm 16:15 Sunny 84 28.8 57 14.1 41 41 SSE 12 19 29.53 1000 10 16.09344 0 0
4:35 pm 16:35 Sunny 84 29.1 57 13.7 39 39 SE 10 17 29.53 1000 10 16.09344 0 0
4:55 pm 16:55 Sunny 85 29.3 58 14.2 40 40 SE 6 9 29.5 999 10 16.09344 0 0
5:15 pm 17:15 Sunny 86 30 56 13.2 36 36 S 12 19 29.5 999 10 16.09344 0 0
5:35 pm 17:35 Sunny 84 29 53 11.6 34 34 S 14 22 29.5 999 10 16.09344 0 0
5:55 pm 17:55 Sunny 83 28.5 53 11.8 36 36 S 13 20 29.53 1000 10 16.09344 0 0
6:15 pm 18:15 Sunny 83 28.2 55 12.5 38 38 SW 9 15 29.5 999 10 16.09344 0 0
6:35 pm 18:35 Sunny 84 28.9 59 15.1 43 43 SSE 6 9 29.47 998 10 16.09344 0 0
6:55 pm 18:55 Sunny 80 26.7 57 13.9 45 45 ESE 7 11 29.44 997 10 16.09344 0 0
7:15 pm 19:15 Sunny 82 27.5 59 15.1 47 47 SSE 6 9 29.47 998 10 16.09344 0 0
7:35 pm 19:35 Sunny 79 26.1 57 13.7 46 46 SE 8 13 29.5 999 10 16.09344 0 0
7:55 pm 19:55 Sunny with Nearby Thunderstorms 82 27.5 56 13.1 41 41 SE 10 17 29.44 997 10 16.09344 0 0
8:15 pm 20:15 Partly Cloudy 81 27.1 50 9.9 34 34 S 33 54 29.5 999 10 16.09344 0 0
8:35 pm 20:35 Partly Cloudy with Nearby Thunderstorms 75 23.8 48 9 39 39 S 31 50 29.53 1000 7 11.265408 0 0
8:55 pm 20:55 Mostly Cloudy with Nearby Thunderstorms 71 21.6 51 10.4 49 49 SSW 35 56 29.59 1002 4 6.437376 0 0
9:15 pm 21:15 Cloudy with Rain 66 18.7 55 12.5 67 67 SSW 26 43 29.65 1004 10 16.09344 0.02 0.508
9:35 pm 21:35 Cloudy with Nearby Thunderstorms 63 17.3 56 13.4 78 78 SW 18 30 29.71 1006 7 11.265408 0.09 2.286
9:55 pm 21:55 Cloudy with Rain 62 16.8 57 13.9 83 83 ESE 10 17 29.65 1004 7 11.265408 0.16 4.064
10:15 pm 22:15 Mostly Cloudy with Light Rain 63 17.1 56 13.6 80 80 ESE 17 28 29.56 1001 10 16.09344 0.02 0.508
10:35 pm 22:35 Partly Cloudy with Nearby Thunderstorms 65 18.1 55 13 72 72 SE 15 24 29.59 1002 10 16.09344 0.02 0.508
10:55 pm 22:55 Mostly Cloudy with Light Rain 66 18.7 56 13.1 70 70 S 29 46 29.59 1002 10 16.09344 0.02 0.508
11:15 pm 23:15 Cloudy with Rain 66 18.7 57 13.7 73 73 E 3 6 29.59 1002 10 16.09344 0.02 0.508
11:35 pm 23:35 Cloudy 66 19 57 13.7 72 72 Calm 29.62 1003 10 16.09344 0.02 0.508
11:55 pm 23:55 Cloudy 66 19 56 13.4 70 70 S 7 11 29.62 1003 10 16.09344 0.02 0.508

Powered by AerisWeather